Change the Weather History Date:

Sunday, November 17, 2013

  Actual Average Record
Temperature  
Mean Temperature 74 °F -  
Max Temperature 80 °F 67 °F 80 °F (2013)
Min Temperature 68 °F 49 °F 28 °F (1997)
Cooling Degree Days 9    
Growing Degree Days 24 (Base 50)    
Moisture  
Dew Point 72 °F    
Average Humidity 93    
Maximum Humidity 100    
Minimum Humidity 74    
Precipitation  
Precipitation 0.00 in - - ()
Sea Level Pressure  
Sea Level Pressure 29.96 in    
Wind  
Wind Speed 10 mph (South)    
Max Wind Speed 14 mph    
Max Gust Speed 21 mph    
Visibility 8 miles    
Events Rain    
Averages and records for this station are not official NWS values.
T = Trace of Precipitation, MM = Missing Value Source: NWS Daily Summary

Daily Weather History Graph

Daily Weather History Graph

Search for Another Location

Airport or City:

Trip Planner

Search our weather history database for the weather conditions in past years. The results will help you decide how hot, cold, wet, or windy it might be!

Date:

Astronomy

Nov. 17, 2013 Rise Set
Actual Time 6:16 AM CST 4:49 PM CST
Civil Twilight 5:50 AM CST 5:15 PM CST
Nautical Twilight 5:21 AM CST 5:44 PM CST
Astronomical Twilight 4:52 AM CST 6:13 PM CST
Moon 5:06 PM CST (11/17) 6:10 AM CST (11/17)
Length of Visible Light 11h 24m
Length of Day
10h 33m
Full, 100% of the Moon is Illuminated
Nov 17
Full
Nov 25
Last Quarter
Dec 2
New
Dec 9
First Quarter
Dec 17
Full

Hourly Weather History & Observations

Time (CST) Temp. Heat Index Dew Point Humidity Pressure Visibility Wind Dir Wind Speed Gust Speed Precip Events Conditions
12:56 AM 68.0 °F - 68.0 °F 100% 29.97 in 4.0 mi ESE 9.2 mph - 0.00 in Rain Light Rain
1:56 AM 68.0 °F - 68.0 °F 100% 29.96 in 9.0 mi ESE 8.1 mph - 0.00 in   Overcast
2:56 AM 68.0 °F - 68.0 °F 100% 29.95 in 9.0 mi ESE 9.2 mph - N/A   Overcast
3:37 AM 68.0 °F - 68.0 °F 100% 29.98 in 2.5 mi ESE 10.4 mph - 0.00 in Rain Light Rain
3:46 AM 68.0 °F - 68.0 °F 100% 29.98 in 4.0 mi ESE 10.4 mph - 0.00 in Rain Light Rain
3:56 AM 68.0 °F - 68.0 °F 100% 29.95 in 5.0 mi SE 9.2 mph - 0.00 in Rain Light Rain
4:56 AM 68.0 °F - 68.0 °F 100% 29.95 in 7.0 mi SE 11.5 mph 19.6 mph 0.00 in   Overcast
5:56 AM 68.0 °F - 68.0 °F 100% 29.95 in 7.0 mi ESE 9.2 mph - 0.00 in   Overcast
6:56 AM 69.1 °F - 69.1 °F 100% 29.95 in 6.0 mi SE 12.7 mph - 0.00 in   Overcast
7:05 AM 69.8 °F - 69.8 °F 100% 29.99 in 5.0 mi SE 13.8 mph - N/A   Overcast
7:56 AM 69.1 °F - 69.1 °F 100% 29.94 in 4.0 mi SE 11.5 mph - N/A   Overcast
8:56 AM 72.0 °F - 71.1 °F 97% 29.96 in 6.0 mi SSE 11.5 mph 20.7 mph N/A   Overcast
9:04 AM 71.6 °F - 71.6 °F 100% 30.00 in 6.0 mi SSE 10.4 mph - N/A   Overcast
9:56 AM 75.0 °F - 73.0 °F 94% 29.97 in 7.0 mi SSE 12.7 mph - N/A   Overcast
10:56 AM 78.1 °F - 73.9 °F 87% 29.96 in 9.0 mi SSW 10.4 mph - N/A   Overcast
11:33 AM 78.8 °F - 73.4 °F 83% 29.99 in 10.0 mi South 12.7 mph - N/A   Overcast
11:56 AM 80.1 °F 84.2 °F 73.0 °F 79% 29.94 in 10.0 mi SSW 13.8 mph - N/A   Overcast
12:04 PM 78.8 °F - 73.4 °F 83% 29.98 in 10.0 mi SSW 11.5 mph - N/A   Overcast
12:56 PM 79.0 °F - 73.0 °F 82% 29.91 in 10.0 mi SSW 13.8 mph - N/A   Overcast
1:34 PM 80.6 °F 85.4 °F 73.4 °F 79% 29.95 in 10.0 mi SSW 12.7 mph - N/A   Mostly Cloudy
1:56 PM 80.1 °F 84.2 °F 73.0 °F 79% 29.91 in 10.0 mi SSW 12.7 mph - N/A   Mostly Cloudy
2:13 PM 80.6 °F 84.6 °F 71.6 °F 74% 29.95 in 10.0 mi SSW 12.7 mph - N/A   Overcast
2:45 PM 78.8 °F - 71.6 °F 78% 29.95 in 10.0 mi South 10.4 mph - N/A   Overcast
2:56 PM 79.0 °F - 72.0 °F 79% 29.90 in 10.0 mi South 12.7 mph - N/A   Overcast
3:26 PM 78.8 °F - 73.4 °F 83% 29.94 in 10.0 mi South 12.7 mph - N/A   Mostly Cloudy
3:56 PM 77.0 °F - 73.0 °F 88% 29.91 in 10.0 mi SSW 10.4 mph - N/A   Mostly Cloudy
4:26 PM 75.2 °F - 73.4 °F 94% 29.95 in 10.0 mi SSW 8.1 mph - N/A   Overcast
4:56 PM 75.0 °F - 73.0 °F 94% 29.92 in 10.0 mi SSW 8.1 mph - N/A   Overcast
5:56 PM 75.2 °F - 73.0 °F 93% 29.93 in 10.0 mi South 8.1 mph - N/A   Overcast
6:56 PM 75.7 °F - 72.1 °F 89% 29.95 in 9.0 mi SW 6.9 mph - N/A   Overcast
7:48 PM 73.4 °F - 73.4 °F 100% 30.01 in 9.0 mi SSW 5.8 mph - N/A   Overcast
7:56 PM 75.7 °F - 72.1 °F 89% 29.97 in 8.0 mi SSW 4.6 mph - N/A   Overcast
8:28 PM 73.4 °F - 73.4 °F 100% 30.01 in 7.0 mi SSW 3.5 mph - 0.00 in   Overcast
8:32 PM 73.4 °F - 73.4 °F 100% 30.01 in 7.0 mi SSW 4.6 mph - 0.00 in   Overcast
8:56 PM 73.0 °F - 73.0 °F 100% 29.96 in 7.0 mi South 4.6 mph - 0.00 in   Overcast
9:12 PM 73.4 °F - 73.4 °F 100% 30.00 in 7.0 mi SSW 4.6 mph - N/A   Overcast
9:41 PM 73.4 °F - 73.4 °F 100% 30.01 in 6.0 mi SSW 3.5 mph - N/A   Overcast
9:56 PM 73.9 °F - 73.9 °F 100% 29.96 in 6.0 mi South 4.6 mph - N/A   Overcast
10:56 PM 73.9 °F - 73.9 °F 100% 29.96 in 6.0 mi SSW 5.8 mph - N/A   Overcast
11:56 PM 73.9 °F - 73.9 °F 100% 29.95 in 6.0 mi SW 6.9 mph - N/A   Overcast